[[{"header":{"parameterUnit":"m.s-1","parameterCategory":1,"la1":30.2991,"la2":30.254,"lo1":-89.0895,"lo2":-89.0444,"dy":0.0017,"dx":0.0017,"nx":28,"ny":28,"refTime":"2025-04-27T21:00:00:Z","depth":0,"parameterNumber":2,"parameterNumberName":"U-component_of_WINDS"},"data":[0,0,0,0,0,0,0,0,0,0,0,0,0,0,0,0,0,0,0,0,0,0,0,0,0,0,0,0,0,0,0,0,0,0,0,0,0,0,0,0,0,0,0,0,0,0,0,0,0,0,0,0,0,0,0,0,0,0,-0.2216,-0.2214,0,-0.21,-0.2099,-0.2098,-0.2051,-0.2052,-0.2052,-0.2052,-0.1932,-0.1929,-0.1925,0,0,0,0,0,0,0,0,0,0,0,0,0,-0.2395,-0.2392,-0.2216,-0.2214,-0.2213,-0.21,-0.2099,-0.2097,-0.2051,-0.2052,-0.2052,-0.2052,-0.1933,-0.1929,-0.1925,0,0,0,0,0,0,0,0,0,0,0,0,0,-0.2302,-0.2391,-0.2216,-0.2176,-0.2172,-0.2101,-0.2099,-0.2097,-0.2051,-0.2052,-0.2052,-0.2052,-0.1935,-0.193,-0.1924,-0.1884,0,0,-0.1909,-0.1906,0,0,0,0,0,0,0,0,-0.2308,-0.2296,-0.2184,-0.2179,-0.2174,-0.2091,-0.2118,-0.2025,-0.2051,-0.2097,-0.2052,-0.2053,-0.1984,-0.1975,-0.1952,-0.1878,-0.1873,-0.1908,-0.1905,-0.1903,-0.1901,0,0,0,0,0,0,0,-0.2314,-0.2301,-0.217,-0.2182,-0.2176,-0.2164,-0.2151,-0.21,-0.2039,-0.2093,-0.2089,-0.2076,-0.1982,-0.1958,-0.1949,-0.1871,-0.1908,-0.1904,-0.19,-0.1898,-0.1759,-0.1758,0,0,0,0,0,0,-0.2327,-0.2306,-0.2174,-0.2166,-0.2243,-0.2161,-0.2146,-0.2117,-0.204,-0.2029,-0.2076,-0.2075,-0.1966,-0.1955,-0.1945,-0.1892,-0.1903,-0.1898,-0.1895,-0.176,-0.1759,-0.1758,0,0,0,0,0,0,-0.2331,-0.2316,-0.2178,-0.2235,-0.2217,-0.2157,-0.2124,-0.2114,-0.209,-0.2027,-0.2016,-0.2063,-0.1966,-0.1952,-0.19,-0.1888,-0.1896,-0.1891,-0.176,-0.1759,-0.1758,-0.1787,0,0,0,0,0,0,-0.2337,-0.2318,-0.2302,-0.2235,-0.2214,-0.2135,-0.2123,-0.2112,-0.2081,-0.2078,-0.2012,-0.2001,-0.1965,-0.1908,-0.1895,-0.1881,-0.1887,-0.1761,-0.176,-0.1759,-0.1787,-0.1788,-0.1788,0,0,0,0,0,-0.2343,-0.2314,-0.2301,-0.2285,-0.2193,-0.2134,-0.2122,-0.2082,-0.2081,-0.2064,-0.2024,-0.2003,-0.1892,-0.1903,-0.1887,-0.1872,-0.1762,-0.176,-0.1759,-0.1787,-0.1788,-0.1788,0,0,0,0,0,0,-0.2379,-0.2304,-0.2289,-0.2237,-0.2193,-0.2127,-0.2104,-0.2084,-0.2038,-0.2037,-0.1989,-0.1975,-0.1926,-0.1894,-0.1908,-0.1829,-0.1825,-0.1821,-0.1852,-0.1852,-0.1852,-0.186,-0.1882,0,0,0,0,0,-0.2381,-0.2341,-0.2277,-0.2238,-0.2216,-0.2164,-0.2137,-0.2111,-0.2062,-0.2043,-0.1999,-0.1952,-0.1907,-0.1878,-0.1832,-0.1783,-0.1768,-0.1765,-0.1765,-0.1766,-0.1762,-0.1735,-0.1733,-0.1754,-0.1754,-0.1754,0,0,-0.2384,-0.2339,-0.2316,-0.2244,-0.2206,-0.2165,-0.2149,-0.2105,-0.2074,-0.2036,-0.1984,-0.195,-0.1895,-0.1845,-0.182,-0.1816,-0.1754,-0.1764,-0.1765,-0.1761,-0.1733,-0.1731,-0.1729,-0.1753,-0.1753,-0.1753,0,0,-0.2369,-0.2331,-0.2294,-0.2257,-0.22,-0.2166,-0.2158,-0.2095,-0.2072,-0.2019,-0.199,-0.1952,-0.1875,-0.1837,-0.1807,-0.1781,-0.176,-0.1767,-0.1769,-0.1742,-0.174,-0.1739,-0.1729,-0.1726,-0.1764,-0.1764,-0.1764,0,-0.238,-0.2317,-0.2277,-0.2236,-0.2205,-0.217,-0.2132,-0.2098,-0.203,-0.2009,-0.2007,-0.1909,-0.187,-0.181,-0.1804,-0.1781,-0.177,-0.1774,-0.1744,-0.1742,-0.174,-0.173,-0.1726,-0.1765,-0.1765,-0.1765,-0.1765,0,-0.2333,-0.229,-0.2267,-0.2203,-0.217,-0.2131,-0.2084,-0.2056,-0.2033,-0.2,-0.1947,-0.1899,-0.1843,-0.1827,-0.1804,-0.1765,-0.1764,-0.1753,-0.1748,-0.174,-0.1729,-0.1725,-0.1767,-0.1767,-0.1766,-0.1766,0,0,-0.2335,-0.2251,-0.2243,-0.2214,-0.215,-0.2116,-0.2076,-0.2022,-0.1999,-0.1953,-0.1918,-0.1855,-0.1845,-0.1812,-0.1784,-0.1761,-0.1743,-0.1753,-0.1751,-0.1752,-0.1697,-0.1704,-0.1701,-0.173,-0.1729,-0.1728,-0.1701,0,-0.2311,-0.2237,-0.2201,-0.2143,-0.2103,-0.207,-0.2035,-0.1992,-0.1961,-0.1922,-0.1887,-0.1843,-0.1833,-0.1813,-0.1789,-0.175,-0.1731,-0.1752,-0.1696,-0.1694,-0.1709,-0.1695,-0.1703,-0.168,-0.1697,-0.1696,-0.1696,0,-0.2272,-0.2228,-0.2166,-0.2108,-0.209,-0.2059,-0.2008,-0.1972,-0.1923,-0.1902,-0.1866,-0.184,-0.1796,-0.1796,-0.1735,-0.175,-0.1726,-0.1703,-0.1702,-0.1694,-0.1694,-0.1686,-0.1671,-0.1668,-0.1689,-0.169,-0.169,0,-0.2279,-0.2204,-0.2158,-0.2134,-0.2065,-0.2045,-0.2015,-0.1967,-0.1938,-0.1893,-0.1874,-0.1825,-0.1798,-0.1761,-0.1722,-0.1725,-0.1665,-0.1661,-0.1646,-0.1647,-0.1633,-0.1634,-0.1613,-0.162,-0.162,-0.162,-0.162,0,-0.2255,-0.2218,-0.216,-0.2132,-0.209,-0.2049,-0.2009,-0.1977,-0.1935,-0.1899,-0.1869,-0.1836,-0.1788,-0.1749,-0.1719,-0.1673,-0.1662,-0.1643,-0.1635,-0.1645,-0.1647,-0.1627,-0.1627,-0.1619,-0.1619,-0.1619,-0.1619,0,-0.2255,-0.2215,-0.2162,-0.2102,-0.2086,-0.2058,-0.2007,-0.1978,-0.1946,-0.1902,-0.1889,-0.1838,-0.1791,-0.175,-0.1687,-0.1667,-0.1621,-0.1611,-0.1637,-0.1633,-0.1619,-0.1621,-0.1583,-0.1576,-0.1589,-0.1589,-0.1589,0,-0.2242,-0.2213,-0.2151,-0.2125,-0.2096,-0.2055,-0.2026,-0.1985,-0.1956,-0.1899,-0.1877,-0.1829,-0.1787,-0.1714,-0.1672,-0.1624,-0.1613,-0.1603,-0.1605,-0.1617,-0.1612,-0.1614,-0.1611,-0.1603,-0.1603,-0.1603,-0.1603,0,-0.2222,-0.2204,-0.2163,-0.2115,-0.2081,-0.2041,-0.2,-0.1981,-0.1933,-0.1902,-0.1854,-0.1822,-0.176,-0.1712,-0.166,-0.163,-0.1608,-0.1603,-0.1597,-0.1606,-0.1622,-0.1613,-0.1637,-0.1604,-0.1604,-0.1604,-0.1604,-0.1604,-0.2214,-0.2187,-0.214,-0.2095,-0.2061,-0.2024,-0.1994,-0.1959,-0.1918,-0.1865,-0.1843,-0.1795,-0.1748,-0.1677,-0.1647,-0.1608,-0.1604,-0.1596,-0.1593,-0.1591,-0.1593,-0.163,-0.1599,-0.1599,-0.1599,-0.1599,-0.1599,0,-0.2193,-0.2161,-0.212,-0.2065,-0.203,-0.2015,-0.197,-0.1941,-0.1899,-0.1858,-0.1818,-0.1764,-0.1718,-0.1673,-0.1625,-0.1603,-0.1592,-0.1591,-0.1592,-0.1585,-0.1599,-0.1609,-0.1601,-0.1601,-0.1601,-0.1601,-0.1601,-0.1601,-0.2177,-0.2131,-0.2108,-0.2045,-0.2013,-0.1966,-0.1941,-0.1907,-0.1874,-0.1815,-0.1777,-0.1748,-0.1705,-0.1654,-0.1611,-0.1599,-0.1583,-0.1585,-0.157,-0.1584,-0.1584,-0.1584,-0.1593,-0.1582,-0.1582,-0.1559,-0.1558,-0.1558]},{"header":{"parameterUnit":"m.s-1","parameterCategory":1,"la1":30.2991,"la2":30.254,"lo1":-89.0895,"lo2":-89.0444,"dy":0.0017,"dx":0.0017,"nx":28,"ny":28,"refTime":"2025-04-27T21:00:00:Z","depth":0,"parameterNumber":3,"parameterNumberName":"V-component_of_WINDS"},"data":[0,0,0,0,0,0,0,0,0,0,0,0,0,0,0,0,0,0,0,0,0,0,0,0,0,0,0,0,0,0,0,0,0,0,0,0,0,0,0,0,0,0,0,0,0,0,0,0,0,0,0,0,0,0,0,0,0,0,2.723,2.7229,0,2.7191,2.719,2.719,2.7207,2.7208,2.7209,2.721,2.7165,2.7163,2.7161,0,0,0,0,0,0,0,0,0,0,0,0,0,2.7315,2.7313,2.723,2.7229,2.7229,2.7191,2.719,2.719,2.7207,2.7208,2.7209,2.721,2.7165,2.7163,2.716,0,0,0,0,0,0,0,0,0,0,0,0,0,2.7277,2.7313,2.723,2.7233,2.7233,2.7191,2.719,2.7189,2.7206,2.7208,2.7209,2.7211,2.7166,2.7163,2.716,2.7111,0,0,2.715,2.7149,0,0,0,0,0,0,0,0,2.7279,2.7274,2.7233,2.7233,2.7232,2.7205,2.7204,2.7163,2.7206,2.7216,2.721,2.7211,2.7177,2.7173,2.7162,2.7109,2.7107,2.715,2.7148,2.7147,2.7146,0,0,0,0,0,0,0,2.7282,2.7276,2.7214,2.7232,2.7232,2.7235,2.7231,2.7196,2.7189,2.7216,2.7217,2.7212,2.7177,2.7165,2.7161,2.7107,2.715,2.7147,2.7146,2.7144,2.7011,2.7009,0,0,0,0,0,0,2.7285,2.7278,2.7215,2.7213,2.726,2.7232,2.7228,2.7212,2.7189,2.7187,2.7211,2.7213,2.717,2.7165,2.716,2.71,2.7147,2.7144,2.7142,2.7012,2.701,2.7009,0,0,0,0,0,0,2.7287,2.7279,2.7217,2.7246,2.7238,2.7229,2.7212,2.7211,2.7199,2.7186,2.7184,2.72,2.7171,2.7164,2.7123,2.7099,2.7143,2.714,2.7014,2.7012,2.701,2.6981,0,0,0,0,0,0,2.7289,2.728,2.7262,2.7245,2.7236,2.7182,2.721,2.7209,2.7194,2.7197,2.7175,2.7173,2.7171,2.7128,2.712,2.7095,2.7137,2.7017,2.7013,2.701,2.6984,2.6978,2.6973,0,0,0,0,0,2.7292,2.7255,2.7261,2.7254,2.7214,2.7181,2.7176,2.7176,2.7192,2.7173,2.7165,2.7174,2.7103,2.7124,2.7115,2.7089,2.7018,2.7014,2.7011,2.6987,2.6979,2.6973,0,0,0,0,0,0,2.7267,2.7253,2.7259,2.7216,2.72,2.7184,2.716,2.7168,2.7145,2.7148,2.7148,2.7143,2.7101,2.7091,2.7114,2.704,2.7063,2.7057,2.7048,2.704,2.7035,2.7037,2.7135,0,0,0,0,0,2.7257,2.7233,2.7221,2.7183,2.7175,2.7169,2.7155,2.7156,2.7139,2.7132,2.712,2.7101,2.7075,2.7057,2.7032,2.6984,2.6978,2.6961,2.6955,2.6951,2.6945,2.6918,2.6909,2.6997,2.6997,2.6997,0,0,2.7235,2.7224,2.7208,2.7178,2.7166,2.7139,2.7163,2.7134,2.7114,2.7127,2.7088,2.7079,2.7058,2.7013,2.6992,2.7003,2.692,2.6946,2.6942,2.6939,2.6913,2.6905,2.6897,2.6994,2.6994,2.6995,0,0,2.7181,2.7171,2.7138,2.7126,2.7107,2.7104,2.7096,2.7079,2.7074,2.7036,2.7045,2.702,2.6975,2.696,2.6946,2.6887,2.6893,2.6878,2.6848,2.6821,2.6814,2.6808,2.6785,2.6777,2.6873,2.6873,2.6873,0,2.7155,2.7116,2.712,2.709,2.7076,2.7089,2.7054,2.7042,2.7016,2.7005,2.7018,2.6962,2.6949,2.69,2.6885,2.6874,2.6864,2.688,2.6815,2.6809,2.6803,2.6781,2.6773,2.6872,2.6872,2.6872,2.6872,0,2.7085,2.7058,2.7034,2.701,2.6993,2.6961,2.6958,2.6941,2.6944,2.6939,2.6899,2.6884,2.6856,2.6845,2.6847,2.6796,2.6803,2.6816,2.6838,2.6793,2.6772,2.6764,2.6869,2.687,2.687,2.6871,0,0,2.7012,2.6992,2.6982,2.6971,2.6953,2.6931,2.69,2.6874,2.6858,2.684,2.6812,2.6774,2.6786,2.677,2.6771,2.6748,2.67,2.6763,2.6763,2.6751,2.6641,2.6631,2.6621,2.6706,2.6704,2.6703,2.6643,0,2.6955,2.6902,2.6904,2.6853,2.6827,2.684,2.6812,2.6796,2.6791,2.6767,2.6761,2.6733,2.6752,2.6742,2.672,2.6711,2.6678,2.6716,2.6678,2.6677,2.6681,2.6611,2.66,2.6543,2.6635,2.6634,2.6633,0,2.6881,2.6862,2.6809,2.6794,2.6784,2.6759,2.6735,2.6713,2.6696,2.6693,2.6676,2.6681,2.6648,2.6673,2.6626,2.6651,2.6637,2.663,2.6628,2.6623,2.6651,2.6602,2.6525,2.6516,2.662,2.6621,2.6622,0,2.6832,2.6793,2.6756,2.6746,2.6728,2.671,2.6702,2.6686,2.667,2.6649,2.6639,2.6614,2.66,2.658,2.6577,2.6596,2.6529,2.6554,2.6524,2.6524,2.6508,2.6509,2.6426,2.6501,2.6502,2.6502,2.6502,0,2.6767,2.6734,2.6733,2.671,2.6673,2.6676,2.6638,2.6631,2.6617,2.6592,2.6601,2.6577,2.6576,2.655,2.6548,2.6509,2.6503,2.6498,2.6498,2.6497,2.6497,2.6485,2.6488,2.65,2.65,2.65,2.6501,0,2.6705,2.6703,2.6664,2.665,2.6646,2.6619,2.6607,2.6584,2.6581,2.6548,2.6541,2.6534,2.6505,2.6501,2.6466,2.6465,2.6417,2.6421,2.6423,2.6423,2.6393,2.6395,2.6298,2.6285,2.6371,2.637,2.6369,0,2.6663,2.6637,2.6622,2.6607,2.6597,2.6572,2.6557,2.6559,2.6542,2.652,2.65,2.6472,2.645,2.6402,2.6393,2.6367,2.6369,2.6337,2.6365,2.6365,2.6367,2.6368,2.6365,2.6331,2.633,2.6329,2.6329,0,2.6588,2.6589,2.6567,2.6544,2.6526,2.6508,2.6491,2.6478,2.6477,2.6458,2.6429,2.6412,2.6377,2.6349,2.6323,2.6313,2.632,2.6321,2.6312,2.6309,2.6311,2.6308,2.6407,2.6322,2.6323,2.6323,2.6324,2.6324,2.6533,2.6511,2.6497,2.6472,2.646,2.6444,2.6422,2.6416,2.6393,2.6366,2.6368,2.6336,2.6319,2.6285,2.6273,2.6247,2.6257,2.6245,2.6241,2.6238,2.6234,2.6317,2.6242,2.6242,2.6242,2.6243,2.6243,0,2.6457,2.6449,2.6427,2.6403,2.6384,2.6395,2.6377,2.6359,2.6331,2.6315,2.6294,2.626,2.6233,2.6222,2.6195,2.6176,2.6178,2.6169,2.6169,2.6166,2.6227,2.6237,2.6167,2.6167,2.6167,2.6167,2.6167,2.6167,2.6416,2.6379,2.6378,2.6335,2.6326,2.6296,2.6285,2.627,2.6257,2.622,2.6198,2.6192,2.6177,2.615,2.6125,2.6122,2.6111,2.6099,2.6098,2.6154,2.6162,2.6169,2.6178,2.6097,2.6097,2.6039,2.6038,2.6038]}]]